Regional Weather Roundup
Issued by NWS

Home | Current Version | Previous Version | Text Only | Print | Product List | Glossary On
Versions: 1 2 3 4 5 6 7 8 9 10 11 12 13 14 15 16 17 18 19 20 21 22 23 24 25 26 27 28 29 30 31 32 33 34 35 36 37 38 39 40 41 42 43 44 45 46 47 48 49 50
000
ASUS46 KSTO 251915
RWRCA

NORTHERN AND CENTRAL CA REGIONAL WEATHER ROUNDUP
NATIONAL WEATHER SERVICE SACRAMENTO CA
1200 PM PDT SUN SEP 25 2016

NOTE: FAIR INDICATES FEW OR NO CLOUDS BELOW 12,000 FEET WITH NO
SIGNIFICANT WEATHER AND/OR OBSTRUCTIONS TO VISIBILITY.

CAZ001-003-252000-
NORTHWEST AREA

CITY           SKY/WX    TMP DP  RH WIND       PRES   REMARKS
CRESCENT CITY  SUNNY     65  52  62 N13       30.12F
UKIAH          SUNNY     87  38  17 CALM      30.06F
$$

CAZ006-505>513-252000-
BAY AREA

CITY           SKY/WX    TMP DP  RH WIND       PRES   REMARKS
SANTA ROSA     SUNNY     88  49  25 SE5       30.02F
SAN RAFAEL     N/A       79  MM  MM MISG
NAPA           SUNNY     90  42  18 E8        30.04F
CONCORD        SUNNY     87  40  19 NE13      30.05F
OAKLAND CITY   N/A       84  MM  MM MISG
OAKLAND        SUNNY     75  64  68 SE9       30.04F
SAN FRAN CITY  N/A       83  MM  19 MISG
SAN FRAN ARPT  SUNNY     77  57  50 NE3       30.04F
LIVERMORE      SUNNY     88  43  20 NE9       30.04F
HAYWARD        SUNNY     83  45  26 S5        30.04F
REDWOOD CITY   N/A       85  MM  26 MISG
MOFFETT ARPT   SUNNY     83  48  29 NW6       30.04F
SAN JOSE ARPT  SUNNY     85  48  27 CALM      30.03F
$$
CAZ034-037-514>518-252000-
CENTRAL COAST

CITY           SKY/WX    TMP DP  RH WIND       PRES   REMARKS
WATSONVILLE    SUNNY     90  43  19 E9        30.04F
SALINAS        SUNNY     87  49  26 SE15      30.02F
MONTEREY       SUNNY     81  49  32 VRB5      30.04F
SAN LUIS OBISP SUNNY     98  37  12 CALM      30.01F HX  93
SANTA MARIA    SUNNY     94  37  13 N6        30.02F
$$
CAZ015-016-252000-
NORTHERN SACRAMENTO VALLEY

CITY           SKY/WX    TMP DP  RH WIND       PRES   REMARKS
REDDING        SUNNY     95  26   8 NE15G28   30.10F
RED BLUFF      SUNNY     94  25   8 N15G25    30.10F
OROVILLE       SUNNY     91  45  20 NW12G20   30.05F
$$
CAZ016>018-252000-
SOUTHERN SACRAMENTO VALLEY

CITY           SKY/WX    TMP DP  RH WIND       PRES   REMARKS
AUBURN         SUNNY     82  45  26 W6        30.13S
BEALE AFB      SUNNY     84  46  26 S6        30.04F
LINCOLN        FAIR      82  45  26 S5        30.06F
MARYSVILLE     SUNNY     85  41  21 CALM      30.06F
SAC INTL ARPT  SUNNY     83  42  23 S5        30.06F
MATHER AIRPORT SUNNY     84  46  26 SW7       30.07F
DOWNTOWN SAC   N/A       85  MM  MM MISG
SAC EXEC ARPT  SUNNY     82  49  31 S6        30.07F
VACAVILLE      SUNNY     88  39  17 NE8       30.07F
TRAVIS AFB     SUNNY     82  46  28 E13       30.04F
$$
CAZ019>021-252000-
SAN JOAQUIN VALLEY

CITY           SKY/WX    TMP DP  RH WIND       PRES   REMARKS
STOCKTON       SUNNY     84  49  29 E6        30.06F
MODESTO        SUNNY     83  48  29 S6        30.06F
MERCED         SUNNY     83  47  28 SE8       30.07F
LEMOORE          N/A    N/A N/A N/A MISG      30.08F
FRESNO         SUNNY     84  42  22 SE7       30.08F
HANFORD        SUNNY     84  45  25 VRB5      30.08F
PORTERVILLE    SUNNY     86  47  25 VRB3      30.09F
BAKERSFIELD    SUNNY     87  42  20 NW8       30.07F
$$
CAZ011-012-071-252000-
NORTHERN MOUNTAINS

CITY           SKY/WX    TMP DP  RH WIND       PRES   REMARKS
YREKA          SUNNY     70  40  33 CALM      30.37F
MOUNT SHASTA   SUNNY     76  40  27 VRB5      30.37F
ALTURAS        SUNNY     75  22  13 N8        30.43F
$$
CAZ011-012-071-252000-
SIERRA NEVADA MTNS

CITY           SKY/WX    TMP DP  RH WIND       PRES   REMARKS
BLUE CANYON    SUNNY     78  19  11 VRB6      30.37S
TRUCKEE        SUNNY     70  23  17 N3        30.47F
TAHOE VLY ARPT SUNNY     70  18  13 NE10G22   30.46F
MAMMOTH LAKES  FAIR      71  16  12 SW3       30.51F
$$



USA.gov is the U.S. government's official web portal to all federal, state and local government web resources and services.